Location: Azul
(36.7830°S, 59.8500°W)
Time: 08:50:16
(UTC-03:00)

RS-15 - Visible Passes

Search period start: 22 October 2021 00:00
Search period end: 01 November 2021 00:00
Orbit: 1884 x 2160 km, 64.8° (Epoch: 21 October)

Date Brightness Start Highest point End Pass type
(mag) Time Alt. Az. Time Alt. Az. Time Alt. Az.
22 Oct 8.2 00:23:48 56° W 00:25:46 62° SW 00:37:00 10° SSE visible
22 Oct 9.6 02:33:06 10° WSW 02:41:04 20° SSW 02:48:51 10° SSE visible
22 Oct 9.9 04:54:16 10° SSW 04:59:56 15° S 05:05:31 10° SE visible
22 Oct 8.9 21:40:18 25° E 21:40:18 25° E 21:47:05 10° SE visible
22 Oct 8.0 23:47:56 69° WNW 23:49:36 78° WSW 00:01:01 10° SSE visible
23 Oct 9.4 01:55:34 11° W 02:04:06 25° SSW 02:12:50 10° SSE visible
23 Oct 9.9 04:17:19 10° SSW 04:22:33 14° S 04:27:42 10° SSE visible
23 Oct 9.1 21:04:14 18° E 21:04:14 18° E 21:09:39 10° ESE visible
23 Oct 7.8 23:11:50 70° N 23:13:34 84° ENE 23:24:59 10° SSE visible
24 Oct 9.2 01:19:26 15° W 01:27:19 30° SW 01:36:53 10° SSE visible
24 Oct 9.9 03:39:51 10° SSW 03:45:09 14° S 03:50:23 10° SSE visible
24 Oct 9.3 20:27:48 11° E 20:27:48 11° E 20:30:20 10° E visible
24 Oct 7.9 22:35:23 57° NNE 22:37:37 66° ENE 22:48:50 10° SE visible
25 Oct 8.9 00:42:56 19° W 00:50:41 38° SW 01:00:57 10° SSE visible
25 Oct 9.9 03:01:53 10° SW 03:07:46 15° SSW 03:13:33 10° SSE visible
25 Oct 9.9 05:19:06 10° SSW 05:26:37 20° SSE 05:34:01 10° ESE visible
25 Oct 8.1 21:58:13 41° NNE 22:01:47 51° ENE 22:12:34 10° SE visible
26 Oct 8.6 00:05:41 19° WNW 00:14:13 48° SW 00:25:02 10° SSE visible
26 Oct 9.9 02:23:42 10° WSW 02:30:29 17° SSW 02:37:08 10° SSE visible
26 Oct 10.0 04:42:54 10° SSW 04:49:30 17° SSE 04:55:59 10° ESE visible
26 Oct 8.4 21:15:32 10° N 21:26:02 38° ENE 21:36:06 10° SE visible
26 Oct 8.3 23:26:15 10° NW 23:37:55 60° SW 23:49:05 10° SSE visible
27 Oct 9.7 01:45:32 10° WSW 01:53:20 20° SSW 02:00:57 10° SSE visible
27 Oct 10.0 04:06:28 10° SSW 04:12:13 15° SSE 04:17:54 10° SE visible
27 Oct 8.7 20:41:06 10° NNE 20:50:23 28° ENE 20:59:20 10° SE visible
27 Oct 8.1 22:49:49 10° NW 23:01:44 76° WSW 23:13:07 10° SSE visible
28 Oct 9.6 01:07:32 10° W 01:16:20 24° SSW 01:24:56 10° SSE visible
28 Oct 10.1 03:29:36 10° SSW 03:34:51 14° S 03:40:02 10° SSE visible
28 Oct 9.0 20:07:25 10° NE 20:14:50 19° E 20:22:02 10° ESE visible
28 Oct 7.9 22:13:42 10° NNW 22:25:40 87° ENE 22:37:05 10° SSE visible
29 Oct 9.3 00:29:48 10° W 00:39:31 29° SW 00:48:58 10° SSE visible
29 Oct 10.1 02:52:12 10° SSW 02:57:27 14° S 03:02:37 10° SSE visible
29 Oct 10.0 05:07:14 10° SSW 05:15:50 25° SSE 05:24:15 10° E visible
29 Oct 7.9 21:37:56 10° NNW 21:49:43 69° ENE 22:00:58 10° SE visible
29 Oct 9.1 23:52:22 10° WNW 00:02:53 37° SW 00:13:03 10° SSE visible
30 Oct 10.1 02:14:19 10° SW 02:20:04 15° S 02:25:44 10° SSE visible
30 Oct 10.0 04:31:13 10° SSW 04:38:53 20° SSE 04:46:25 10° ESE visible
30 Oct 8.1 21:02:31 10° N 21:13:52 53° ENE 21:24:42 10° SE visible
30 Oct 8.8 23:15:15 10° WNW 23:26:23 46° SW 23:37:07 10° SSE visible
31 Oct 10.0 01:36:09 10° SW 01:42:46 17° SSW 01:49:16 10° SSE visible
31 Oct 10.1 03:55:03 10° SSW 04:01:46 17° SSE 04:08:23 10° ESE visible
31 Oct 8.4 20:27:29 10° N 20:38:06 40° ENE 20:48:17 10° SE visible
31 Oct 8.5 22:38:27 10° NW 22:50:03 58° SW 23:01:11 10° SSE visible
